Orbital Elements at Epoch 2459200.5 (2020-Dec-17.0) TDB
Reference: JPL 14 (heliocentric ecliptic J2000)
Element | Value | Uncertainty (1-sigma) | Units |
e | .1244644279577841 | 3.4943e-08 | |
a | 2.175470628242513 | 1.0952e-08 | au |
q | 1.904701920959347 | 7.5472e-08 | au |
i | 5.154319145231124 | 4.0718e-06 | deg |
node | 290.129752609462 | 7.5713e-05 | deg |
peri | 357.2670906564982 | 8.3402e-05 | deg |
M | 211.6207598604309 | 3.7331e-05 | deg |
tp | 2459683.557584057581 (2022-Apr-14.05758406) | 0.00012338 | TDB |
period | 1172.001757773891 3.21 | 8.8503e-06 2.423e-08 | d yr |
n | .3071667748039787 | 2.3195e-09 | deg/d |
Q | 2.446239335525678 | 1.2315e-08 | au |
|
| | Orbit Determination Parameters
Additional Information
|